Location: Basses Si�yes
(44.0835°N, 6.2037°E)
Time: 06:23:45
(UTC+00:00)

STARLINK-1065 - Pass Details

Date: 27 February 2020
Orbit: 547 x 551 km, 53.0° (Epoch: 28 March)

Event Time Altitude Azimuth Distance (km) Brightness Sun altitude
Rises 17:58:55 0° 228° (SW) 2,701 8.1 -7.8°
Reaches altitude 10° 18:01:08 10° 227° (SW) 1,812 7.1 -8.2°
Maximum altitude 18:05:14 73° 143° (SE) 576 3.6 -8.9°
Drops below altitude 10° 18:09:22 10° 59° (ENE) 1,823 5.7 -9.6°
Enters shadow 18:09:25 10° 59° (ENE) 1,846 5.8 -9.6°
